Theta_e
320 320 320 321 321 321 321 322 322 322 323 323 323 323 323 323 323 323 323 324 324 324 324 324 325 325 325 325 326 325 322 323 320 316 314 315 328 333 332 336 336 334 327 320 316 313 310 312 311 314 314 314 315 310 318 313 315 312 304 302 300 302 301 304 303 303 305 303 304 305 306 305 303 306 307 307 307 306 307 307 309 311 311 312 313 317 316 316
319 320 320 320 321 321 321 321 322 322 322 322 323 323 323 323 323 323 323 323 323 323 323 324 324 325 325 325 325 325 322 325 317 314 314 330 335 336 333 338 336 331 328 315 313 311 310 310 311 312 312 309 317 310 313 312 314 306 304 303 299 303 303 307 306 305 303 302 304 305 306 306 305 305 307 304 304 305 305 306 309 309 310 312 313 315 313 315
319 319 319 320 320 321 320 321 321 322 322 322 322 322 322 322 322 323 323 323 323 323 323 324 325 325 325 325 325 324 322 321 319 314 320 334 334 337 338 338 331 329 319 314 314 313 311 310 312 311 311 308 311 308 310 310 310 308 304 300 302 307 306 308 308 306 306 305 304 304 305 305 306 306 308 303 303 304 303 303 305 306 307 309 312 313 313 314
319 319 319 320 320 321 321 321 321 321 321 322 322 322 322 322 322 323 323 323 323 323 323 324 324 325 325 324 325 324 327 324 309 311 319 335 337 338 341 336 332 328 320 316 316 314 313 312 312 311 309 306 309 310 307 311 306 308 306 301 303 305 305 306 306 306 307 306 304 304 305 304 306 307 307 304 302 303 304 307 306 306 308 310 311 312 313 313
319 320 321 319 320 320 320 320 321 321 321 322 322 322 322 322 323 322 323 323 323 323 323 324 324 324 324 325 322 325 321 306 306 316 330 333 339 339 338 336 332 321 318 315 314 313 311 310 310 309 308 304 307 307 306 308 311 309 305 306 305 305 303 307 308 307 307 307 305 304 302 303 308 307 305 304 300 300 304 307 308 308 309 309 309 311 312 313
320 320 320 319 319 319 320 320 320 321 321 321 322 322 322 322 323 322 322 322 323 323 323 324 324 324 324 324 324 326 312 295 310 319 331 334 338 340 338 334 329 320 316 313 312 311 310 309 308 305 305 304 303 302 305 307 311 301 304 305 306 307 304 307 307 307 306 305 304 303 305 307 305 304 306 305 304 306 309 309 309 310 310 310 311 311 310 313
320 320 319 319 318 318 319 320 320 321 321 321 321 322 322 323 322 322 322 322 323 323 323 323 323 323 323 323 324 317 308 308 314 330 336 339 338 337 335 331 327 317 315 312 311 310 309 307 307 304 304 303 304 303 305 306 310 304 299 303 304 305 305 307 306 307 306 305 304 305 307 304 304 301 306 305 307 309 311 311 310 311 311 311 310 310 310 311
320 320 319 318 318 318 319 320 320 320 320 321 321 321 322 322 322 322 322 322 322 322 323 322 323 323 323 323 317 312 308 306 315 330 332 338 336 331 327 322 317 316 313 312 311 309 309 306 305 306 303 301 302 303 305 304 305 303 301 304 304 306 306 307 306 305 306 306 307 306 303 303 305 304 305 303 306 308 310 311 311 311 311 310 310 310 310 311
320 319 319 318 318 318 318 319 320 320 320 321 321 321 322 322 322 322 322 322 322 322 322 323 322 322 322 320 313 308 307 316 315 330 337 335 331 325 321 316 317 314 313 313 313 311 309 307 307 307 301 302 305 303 304 301 299 303 303 305 304 304 305 306 306 305 306 306 306 303 302 304 305 306 303 305 306 308 309 309 310 310 309 309 309 309 310 310
320 320 319 319 318 319 319 319 319 320 321 321 321 322 322 322 322 322 322 322 322 322 321 322 322 321 319 316 312 304 319 313 328 333 335 329 325 321 318 320 316 314 312 312 312 311 308 308 308 310 308 305 306 302 304 303 300 304 303 303 302 303 303 304 302 303 304 304 305 302 302 302 305 303 299 306 308 308 308 308 309 308 307 308 308 309 309 309
321 320 319 320 320 319 319 319 319 320 321 321 322 322 322 322 322 322 321 321 321 321 321 321 322 319 318 313 306 304 318 324 328 329 327 324 320 317 316 317 316 314 313 313 311 312 311 310 313 310 307 302 304 303 303 303 304 303 302 301 301 302 303 303 303 303 304 302 304 303 301 303 303 303 300 305 308 308 307 307 307 307 307 307 308 308 310 310
320 320 320 320 319 319 319 319 320 320 321 321 322 322 322 322 322 321 321 321 320 321 321 321 321 320 316 309 305 307 313 325 327 326 324 322 320 318 317 317 316 317 314 311 312 315 315 314 312 307 300 306 300 303 302 304 302 302 301 296 299 301 300 303 302 303 304 302 303 303 300 298 299 298 304 306 308 307 306 306 306 306 306 307 308 308 308 309
320 320 320 320 319 318 319 319 320 321 321 322 322 322 322 322 321 321 321 320 321 321 321 321 320 322 317 305 310 314 318 322 324 322 321 322 317 316 317 318 317 315 315 314 312 317 315 313 311 305 308 305 302 298 302 301 302 302 301 298 297 298 298 303 305 304 303 302 302 301 291 296 299 302 305 307 307 307 306 305 305 305 306 306 307 307 308 309
321 320 320 319 319 318 319 320 321 321 322 322 322 322 321 321 321 320 320 319 320 321 321 320 322 318 313 306 311 314 316 322 319 319 318 319 316 316 316 316 316 314 315 312 313 312 313 311 311 308 309 303 301 308 302 302 302 297 300 300 295 294 295 303 303 302 298 302 301 301 291 295 299 302 305 306 306 305 303 304 304 305 305 306 307 307 307 308
319 320 320 319 319 319 319 320 321 322 322 322 322 322 321 321 320 320 319 319 320 320 321 320 320 317 305 307 309 313 318 315 313 316 318 314 313 312 313 314 313 313 311 312 313 311 311 311 309 304 302 306 305 301 298 298 300 300 295 294 298 295 298 302 303 301 298 300 301 299 292 295 300 302 305 306 306 304 302 303 304 304 305 305 306 306 306 307
321 320 319 319 319 319 320 320 321 322 322 322 322 321 321 319 318 320 320 320 318 319 321 320 316 312 306 305 311 317 314 309 310 315 316 315 315 311 313 313 313 311 311 308 310 309 309 309 304 303 303 303 300 298 296 296 297 299 296 294 294 297 297 298 302 303 303 300 299 299 294 297 298 303 304 306 305 304 303 303 304 305 305 305 306 306 306 307
321 320 319 320 319 320 320 321 321 321 322 322 321 321 318 318 318 318 319 319 321 320 323 313 310 309 302 309 310 308 307 312 311 316 312 314 314 315 311 310 308 308 309 308 309 308 307 304 306 302 303 299 301 299 293 293 293 295 299 295 298 295 297 295 301 303 305 300 297 299 294 295 298 301 302 304 304 303 302 302 303 304 305 305 306 306 306 306
321 320 320 320 320 321 321 321 321 322 322 322 320 319 320 320 319 318 319 320 323 321 319 318 316 309 306 310 305 306 309 307 314 312 314 312 313 311 311 307 308 307 307 304 307 303 304 301 303 298 300 298 298 297 292 289 294 295 296 295 296 298 298 296 295 300 302 302 299 300 299 298 300 302 303 304 305 304 303 303 303 304 304 305 305 306 306 307
320 320 321 321 321 321 321 321 322 322 322 321 323 316 318 318 321 321 315 315 314 313 307 304 305 301 301 307 309 307 311 311 312 313 308 310 312 312 311 311 309 305 303 302 302 303 302 302 302 297 295 297 297 297 295 296 298 296 297 296 295 293 294 295 299 302 302 299 298 297 296 298 299 300 302 303 304 303 303 304 304 304 304 305 305 306 307 308
320 321 322 322 322 321 321 322 322 323 322 321 323 319 317 317 316 311 311 310 308 311 312 313 314 313 313 313 312 310 311 312 308 310 311 311 310 308 307 307 308 306 303 300 301 302 304 297 295 294 297 299 301 301 300 300 300 299 298 297 295 295 296 299 300 302 303 299 298 297 297 297 298 299 301 302 303 303 303 302 303 304 304 305 306 307 308 308
321 321 321 321 321 321 321 322 322 322 321 323 320 318 311 311 306 305 309 312 315 316 314 314 314 313 312 311 312 310 307 306 308 308 311 312 311 307 303 305 302 300 301 303 303 301 301 296 296 299 300 301 302 303 302 300 300 297 296 295 294 296 294 299 299 302 303 298 296 298 297 297 298 299 301 303 302 301 302 302 303 303 305 306 307 306 307 307
320 321 321 321 321 321 322 322 322 322 320 321 321 315 313 311 310 311 309 306 313 316 315 314 316 311 315 312 311 310 310 306 308 308 311 311 307 304 303 303 301 299 303 302 300 297 295 294 298 301 303 303 303 302 300 298 296 297 295 295 294 295 298 300 300 302 300 296 294 297 295 295 297 299 301 302 302 303 304 304 304 305 305 306 306 306 306 306
320 321 321 321 321 322 322 322 321 321 322 321 319 315 313 311 312 312 310 307 305 313 312 312 308 308 309 313 312 310 305 304 304 308 306 310 305 304 304 301 301 301 301 301 297 298 295 299 301 303 303 301 301 301 299 297 297 295 295 293 292 297 295 292 299 299 299 297 295 296 294 295 299 301 302 303 303 303 305 305 305 306 305 305 305 304 304 305
320 320 321 321 321 321 322 322 321 323 321 318 317 314 313 313 313 311 307 303 304 309 309 309 307 307 306 305 309 306 304 306 307 307 310 308 304 307 304 302 301 301 299 300 299 298 298 303 303 303 302 301 298 299 298 296 294 298 297 295 294 295 296 296 296 298 299 299 299 296 295 296 301 299 300 302 303 304 305 306 306 307 307 306 307 306 306 304
319 319 320 320 320 321 321 320 321 322 317 316 316 313 313 314 312 313 306 304 304 304 308 307 307 308 306 311 309 303 306 305 306 305 309 308 305 302 303 305 302 299 300 301 300 298 298 303 303 299 299 299 298 296 297 297 293 296 299 298 297 298 296 297 297 295 293 293 294 294 288 291 297 298 299 302 303 302 304 305 303 303 303 304 303 303 304 306
317 318 319 319 320 320 321 319 320 319 319 319 314 313 312 312 313 311 305 299 296 305 303 301 311 300 311 302 307 305 304 300 305 306 309 308 307 304 302 300 302 298 300 300 299 299 299 302 301 299 299 298 297 296 298 298 294 293 295 300 299 297 296 295 295 294 288 287 294 296 287 285 296 296 299 300 301 302 304 302 300 301 301 301 301 302 302 302
315 315 317 319 320 321 318 316 317 319 317 317 313 313 311 311 313 309 300 297 294 305 301 302 303 303 308 303 305 304 295 298 305 306 306 308 304 308 299 300 299 300 299 300 297 294 299 299 297 298 297 297 296 294 298 298 295 292 297 299 298 296 295 295 294 293 290 295 296 295 293 287 288 295 300 301 299 300 301 299 300 300 300 300 300 300 300 300
314 314 315 317 320 320 321 320 319 319 316 314 314 312 311 310 311 308 300 287 287 306 299 299 303 307 306 302 305 300 297 300 299 300 304 306 305 302 300 299 299 299 298 298 289 301 298 297 297 296 296 296 295 298 303 301 296 296 296 297 296 295 294 294 293 292 292 291 287 293 295 288 288 296 299 300 297 298 298 297 298 299 299 299 300 300 300 300
312 313 315 317 319 320 321 319 318 317 313 313 313 311 310 309 307 302 296 284 303 301 310 298 307 303 302 302 300 299 298 299 296 300 305 305 306 302 297 300 300 299 299 298 294 299 298 298 300 300 297 294 299 299 300 301 295 300 297 297 297 296 296 295 292 291 291 288 285 290 293 287 289 297 296 297 295 296 296 298 298 298 298 298 298 299 299 299
310 311 312 317 319 318 319 318 318 312 311 312 312 311 309 307 304 295 290 282 303 294 301 301 299 297 300 296 297 299 297 298 300 301 303 301 303 303 300 299 298 298 297 298 297 298 298 296 298 298 297 300 298 295 297 300 299 297 298 296 295 296 294 294 293 291 288 284 287 293 294 292 285 294 296 296 296 296 297 297 297 298 298 298 298 297 297 297
308 309 310 312 317 319 319 315 316 311 312 313 312 310 311 309 297 291 283 293 299 300 301 299 297 301 297 296 296 298 299 299 298 300 297 300 299 300 299 297 300 296 294 295 293 297 298 296 295 298 301 299 299 297 295 296 297 297 294 292 292 291 294 290 289 290 284 284 291 293 294 294 284 291 296 297 298 298 297 296 295 295 296 296 296 296 296 296
307 308 308 312 314 317 315 313 314 314 313 313 312 312 309 294 299 286 287 300 290 298 297 298 299 299 298 300 298 297 297 298 299 298 298 298 298 296 296 295 297 291 291 291 292 296 293 295 298 300 298 299 297 295 296 294 294 293 292 290 287 286 288 285 288 282 284 284 288 291 292 288 288 293 298 300 300 297 298 297 296 295 295 295 294 294 294 295
307 308 308 310 313 316 317 315 314 313 313 312 313 311 300 291 282 292 292 297 291 301 298 303 299 298 299 297 297 300 300 298 300 298 301 301 298 300 302 300 302 298 289 295 293 293 294 298 298 298 297 298 299 291 292 290 292 292 290 288 286 283 283 280 284 286 286 289 289 290 292 286 292 294 299 299 299 297 297 297 296 295 293 292 292 293 293 293
307 307 308 309 309 314 313 312 313 314 313 312 309 302 295 285 285 297 296 297 298 300 301 299 297 298 298 295 299 301 296 302 300 300 300 298 297 295 298 301 301 298 297 294 290 291 286 287 294 295 294 299 297 297 297 296 294 292 296 293 289 288 284 279 282 279 281 284 288 290 287 284 285 291 299 297 296 297 296 296 295 294 293 293 292 292 292 291
306 306 308 309 311 311 313 313 313 315 315 312 305 297 285 286 291 291 292 296 300 302 299 301 298 297 296 297 300 300 300 296 302 300 297 296 294 295 295 296 301 300 298 290 294 291 290 289 296 300 298 298 296 299 301 298 295 295 296 296 290 288 293 284 286 285 284 284 285 286 285 291 291 299 300 298 297 295 295 294 293 292 292 292 291 290 289 289
305 305 305 303 307 311 313 314 312 314 313 307 297 290 286 291 289 296 294 302 301 298 299 299 299 295 295 295 300 298 303 296 298 297 296 297 297 295 299 299 299 300 296 290 293 286 290 287 295 298 297 297 296 296 297 299 286 291 291 287 290 296 293 288 287 288 287 285 281 289 287 292 297 298 300 298 293 293 293 292 291 290 290 290 289 289 289 289
302 304 298 303 304 313 313 314 313 313 311 304 294 286 293 296 299 299 301 299 298 300 298 291 292 293 293 292 294 296 297 298 297 295 291 298 293 297 297 299 301 299 300 297 293 298 287 289 297 296 294 295 293 296 297 296 298 292 286 292 295 297 295 289 281 284 283 280 281 288 284 286 288 284 297 295 291 291 290 290 290 290 289 288 288 288 288 288
301 301 301 303 306 313 314 315 313 311 306 300 291 292 299 295 301 300 301 298 298 300 294 292 293 297 291 292 291 294 297 293 293 294 290 295 288 300 295 296 297 297 298 299 293 293 295 286 293 296 296 294 296 296 294 298 299 294 293 298 289 284 284 289 285 277 278 277 280 284 287 287 289 289 294 292 291 290 290 290 289 289 288 287 287 287 287 288
299 300 296 302 310 313 314 315 312 307 302 294 290 290 297 298 302 301 300 300 301 299 293 295 292 296 294 290 292 294 295 289 293 292 289 292 288 298 296 298 296 295 297 298 294 295 296 286 288 297 294 295 295 294 287 292 295 297 296 293 297 291 286 284 286 285 284 278 279 280 285 282 292 292 294 292 292 290 290 289 288 288 288 288 288 287 286 287
297 295 295 309 310 312 314 314 307 303 298 289 292 292 300 298 300 302 301 300 298 296 294 294 296 292 294 294 294 291 295 293 292 291 291 293 291 298 295 300 296 298 297 297 296 298 290 294 282 291 294 295 288 293 289 292 289 289 289 288 291 288 292 290 287 285 283 280 280 279 278 284 291 294 294 291 291 292 291 289 289 288 288 288 288 288 288 287
301 297 297 308 310 312 312 307 300 295 295 298 298 295 298 296 300 299 302 302 301 303 297 297 295 292 293 292 292 295 292 293 292 290 291 291 291 287 298 296 298 297 299 298 295 295 290 290 285 287 289 289 290 297 296 296 295 293 291 287 290 286 285 281 279 289 285 282 279 279 277 285 293 292 292 292 292 292 292 291 290 289 289 289 289 288 287 286
296 289 295 309 310 311 304 294 295 300 297 294 293 297 295 302 299 299 300 301 301 299 302 298 298 296 295 294 294 294 293 292 292 292 293 290 294 293 296 295 297 299 295 291 293 299 294 292 288 284 286 288 292 295 299 298 297 296 293 290 293 291 289 284 277 281 286 285 286 283 280 283 290 292 292 291 292 291 291 291 290 289 288 288 288 287 287 287
294 290 301 304 310 307 301 293 296 295 293 297 302 301 301 299 298 299 297 299 297 300 298 297 296 295 296 294 294 293 294 290 292 290 292 293 294 295 295 297 297 298 297 294 296 297 293 287 285 286 290 293 295 296 298 297 297 293 293 294 292 288 289 286 284 285 283 284 282 283 278 284 289 292 291 291 290 290 290 290 289 288 287 287 286 286 286 286
295 295 298 304 309 307 297 287 288 291 293 297 297 297 301 298 298 296 295 297 296 296 295 295 296 297 294 297 295 292 294 285 292 292 290 294 291 295 296 296 297 292 294 292 291 296 286 287 287 281 282 284 287 291 292 294 294 290 289 291 292 292 291 289 287 287 280 282 282 280 274 282 288 288 288 289 289 288 288 288 288 286 286 286 286 286 286 287
294 296 297 299 305 302 292 295 293 291 292 292 293 292 294 296 298 297 296 295 298 296 296 294 296 297 295 297 295 295 294 292 287 293 293 293 292 294 294 295 296 294 296 294 294 296 289 286 284 278 276 274 274 276 279 282 285 286 287 287 289 289 288 285 281 283 278 282 283 278 278 285 290 289 288 288 287 286 286 286 286 287 286 286 286 286 286 286
289 283 292 294 297 296 296 299 296 294 291 291 290 292 293 291 295 299 298 295 297 297 297 296 298 296 293 293 291 291 292 295 290 288 289 290 291 292 292 293 294 295 291 291 289 292 286 287 286 283 281 279 281 284 287 288 285 282 285 287 287 289 289 287 285 280 277 280 279 281 282 282 285 288 289 290 287 286 285 286 285 285 286 286 287 287 286 286
292 286 289 285 294 294 292 295 294 295 291 294 288 292 289 291 293 293 299 291 296 295 295 295 294 291 291 291 289 288 290 290 292 290 289 289 290 291 291 292 291 290 289 289 292 289 285 283 284 284 284 284 286 285 287 287 283 284 284 284 286 286 286 284 281 278 284 280 275 283 284 282 283 287 288 289 289 287 287 287 286 286 286 286 286 287 287 286
284 289 293 295 290 286 287 288 292 292 294 294 290 293 290 290 290 288 294 296 296 298 291 293 294 293 292 290 290 285 287 288 288 286 291 289 289 290 288 290 289 289 290 289 292 287 283 280 284 284 282 285 287 286 287 286 285 285 284 284 283 284 284 281 282 284 283 278 276 282 283 281 283 286 287 288 287 286 286 285 285 285 285 286 285 285 286 286
291 288 289 293 287 291 292 292 293 292 291 292 290 291 289 289 288 291 290 291 293 292 294 285 289 292 292 293 290 286 287 283 283 288 287 286 285 285 284 286 287 288 289 287 287 288 284 281 283 283 281 283 284 285 286 284 283 283 283 283 284 283 283 283 283 284 283 281 283 283 283 283 285 286 288 286 286 285 285 285 286 285 284 284 285 285 285 286
286 286 286 290 290 289 290 291 291 291 288 291 287 289 289 288 287 291 292 291 286 289 294 289 288 288 289 289 289 286 287 286 284 282 286 285 284 285 284 285 285 286 286 285 287 287 284 279 283 280 280 280 283 284 284 284 282 280 282 283 283 282 282 283 282 282 283 281 282 282 281 281 286 285 285 285 285 286 284 284 284 284 284 283 283 283 283 284
290 292 292 287 285 287 287 289 289 288 286 288 286 288 290 288 288 290 290 291 291 288 291 288 287 284 284 285 286 285 288 286 286 285 286 286 282 288 284 284 288 283 284 281 284 283 285 280 283 280 276 276 280 280 280 280 278 277 276 278 278 279 278 280 279 282 281 279 281 281 279 279 284 284 285 284 284 283 281 282 283 283 283 283 282 283 283 283
291 292 293 289 284 289 284 288 288 287 283 288 289 289 288 288 289 290 286 290 287 289 290 290 289 287 286 285 284 286 289 287 287 289 289 288 289 288 289 288 287 284 283 282 283 282 283 280 278 278 275 274 279 277 276 276 275 272 274 277 279 280 281 281 282 283 282 282 278 276 277 283 283 285 282 281 281 281 282 282 282 282 282 282 282 282 283 283
Wind_Speed
6 7 7 7 8 8 8 8 8 9 9 9 9 9 9 9 10 10 10 10 10 11 11 11 12 11 12 12 12 12 14 6 6 7 7 8 7 7 7 8 11 11 10 6 7 7 7 7 7 6 5 5 3 5 4 4 3 4 5 6 7 7 8 6 6 7 7 8 10 6 4 7 10 4 3 2 8 11 13 14 16 12 13 14 12 5 7 8
6 7 7 7 7 7 7 7 8 8 9 9 9 9 10 9 10 10 10 10 10 10 11 11 11 11 11 11 11 12 11 6 10 9 16 6 10 9 7 9 11 11 10 8 9 9 6 7 7 7 6 6 4 2 4 3 4 6 6 7 9 7 8 6 7 9 10 11 11 12 12 9 11 9 7 9 10 10 13 15 15 14 14 15 15 9 8 8
5 6 6 7 7 7 7 7 7 8 9 9 9 9 10 10 10 10 10 10 10 11 11 12 12 12 12 12 11 11 7 7 9 11 4 6 12 8 7 10 13 11 10 8 8 7 6 5 6 6 7 7 6 4 5 4 5 8 8 9 9 9 12 10 7 11 11 12 13 13 12 12 9 9 7 10 13 11 14 14 14 14 13 12 12 15 13 10
5 5 6 6 7 7 7 7 8 9 9 9 10 9 10 10 10 10 10 11 11 10 11 11 12 12 12 12 11 7 5 9 10 5 4 4 6 8 7 11 12 11 8 4 4 6 2 3 4 7 6 6 3 4 5 5 3 2 7 8 8 9 8 9 10 10 10 10 12 13 13 14 12 11 8 8 11 11 15 15 16 17 15 13 11 11 5 11
4 5 6 7 7 7 8 8 8 9 9 9 10 10 10 11 11 11 11 11 11 11 12 12 11 12 12 12 13 5 5 11 2 3 6 4 5 6 8 11 11 11 7 3 3 4 5 6 5 6 6 7 7 5 10 7 8 5 10 12 13 13 14 10 10 11 7 4 10 14 14 13 9 6 11 13 14 11 11 13 14 16 17 16 15 13 9 8
4 4 6 6 6 7 8 8 8 9 10 10 10 11 11 11 11 12 12 12 12 12 12 12 12 12 12 13 9 3 2 6 3 2 2 4 3 5 8 9 10 8 6 6 6 5 6 6 7 6 6 8 9 9 5 7 6 8 11 13 14 14 15 12 11 3 1 9 12 13 12 11 11 13 14 14 16 16 16 16 17 19 20 19 16 14 12 10
3 3 4 5 6 7 8 8 9 10 10 11 11 12 12 12 12 12 13 13 13 13 12 12 11 11 12 13 4 5 7 10 5 3 5 3 5 6 8 8 6 6 8 7 7 6 8 7 8 8 8 10 11 12 12 7 6 9 14 12 15 12 13 12 13 1 5 10 13 13 13 15 15 19 14 16 15 17 18 18 19 20 20 19 17 14 14 14
3 2 2 5 6 6 7 8 9 9 10 11 11 12 12 13 13 13 13 14 14 14 13 12 10 9 10 5 3 5 7 10 2 3 6 6 7 9 9 7 9 7 9 10 8 9 6 9 9 7 9 10 8 6 4 7 10 11 12 13 13 11 12 12 11 12 11 11 12 12 15 20 16 17 17 23 18 18 18 18 19 20 19 17 16 15 13 14
0 2 1 5 6 6 7 8 9 9 10 11 11 12 13 13 14 14 14 15 15 14 13 11 9 7 5 4 4 7 10 4 4 4 8 7 9 10 10 7 10 9 9 9 9 7 6 7 9 8 8 9 6 9 8 6 11 11 16 14 13 13 11 10 12 13 11 9 10 11 17 18 17 17 22 25 20 19 19 21 20 17 16 16 14 13 13 13
4 4 4 4 5 7 8 9 9 10 11 11 12 12 13 14 15 15 16 15 15 14 12 10 8 6 5 4 5 8 1 1 3 3 4 6 8 8 10 3 10 9 9 9 7 8 9 6 6 5 7 12 13 12 10 9 11 6 9 9 11 14 15 15 17 17 14 14 13 12 15 17 13 8 15 10 6 4 9 11 11 13 14 15 13 13 12 13
4 4 6 5 4 7 8 9 10 10 11 11 12 13 13 14 15 16 16 15 14 13 10 8 1 1 5 5 8 10 3 1 2 4 5 6 8 8 9 3 8 9 10 6 8 9 8 8 2 2 2 8 3 10 8 8 5 9 10 12 16 17 17 18 18 18 12 13 13 14 16 15 14 10 17 18 13 12 10 12 13 14 15 15 15 14 11 12
4 5 5 6 7 8 9 9 10 11 11 12 12 13 14 15 15 16 15 13 11 9 8 6 6 4 5 8 9 6 3 4 3 4 5 5 4 3 5 1 4 7 8 8 7 8 3 3 4 5 6 8 9 7 9 4 7 8 7 11 13 15 15 17 17 17 14 12 2 3 9 13 14 12 20 20 17 14 14 13 12 14 15 15 15 14 12 12
4 5 5 6 7 8 9 10 11 12 13 13 13 14 15 15 16 14 10 9 7 5 3 4 4 4 4 8 7 5 3 4 5 5 4 4 5 3 3 2 2 2 4 6 4 2 1 2 5 10 11 10 10 9 3 5 3 8 12 12 14 13 13 16 11 8 8 4 8 5 9 4 8 13 15 15 11 10 9 10 13 14 14 13 14 13 14 14
4 5 6 7 8 9 9 11 12 12 13 13 14 15 16 16 13 9 7 7 6 4 5 5 3 4 4 9 3 2 2 2 5 5 4 5 5 3 3 2 0 1 2 3 2 2 1 2 5 10 4 6 8 6 9 7 5 9 11 7 9 10 11 10 5 6 5 6 8 6 11 9 13 15 13 11 5 9 10 13 17 18 17 15 14 14 15 17
5 7 4 7 8 8 9 12 12 14 15 15 16 16 16 12 6 6 4 4 1 1 6 3 4 3 5 4 5 3 4 1 5 3 3 5 5 3 4 4 3 1 1 1 1 0 1 4 5 6 7 4 7 11 12 9 9 9 9 8 8 9 7 7 5 9 8 4 8 8 10 8 8 7 8 9 6 6 11 14 18 18 17 16 15 17 17 18
6 3 7 8 8 9 9 11 12 14 16 17 17 17 10 4 2 3 4 4 3 5 3 3 4 3 6 11 3 3 2 4 5 3 1 2 4 2 5 4 4 3 3 2 1 1 3 5 7 4 6 4 8 9 10 8 7 9 11 12 11 11 12 12 5 3 10 3 10 11 13 12 13 11 12 14 19 20 18 18 19 21 21 18 16 15 15 15
4 6 7 7 8 8 9 11 12 13 15 15 18 11 3 1 1 1 2 1 3 2 3 2 4 3 6 3 4 4 3 2 1 3 3 1 1 5 7 5 4 4 4 4 3 5 5 7 3 2 6 8 7 8 7 8 9 9 9 12 10 13 11 9 7 11 2 6 9 12 12 12 15 15 16 16 16 18 17 19 20 19 17 17 15 15 16 15
6 8 7 7 8 8 8 10 12 14 14 14 17 6 3 5 2 3 6 4 1 2 3 3 3 2 9 4 8 2 5 4 2 3 2 1 3 6 6 5 4 6 6 6 4 7 6 6 4 7 5 8 9 7 8 10 8 11 12 14 13 13 13 17 14 9 11 13 17 16 18 18 16 15 14 15 15 17 18 19 19 17 16 17 16 15 15 13
9 10 9 9 9 9 9 10 13 14 15 19 13 1 1 2 3 5 4 2 3 3 4 5 5 6 4 3 3 5 3 3 3 2 3 6 2 3 3 1 7 9 6 5 5 8 4 4 3 6 8 9 10 11 12 14 15 17 16 12 14 15 14 13 14 16 15 18 15 16 17 16 15 14 15 17 18 18 19 20 17 17 17 17 16 13 11 9
11 12 9 9 9 9 9 10 13 14 16 13 4 2 3 3 3 3 4 6 7 8 11 11 9 13 16 16 6 3 2 2 4 3 5 1 7 7 6 6 5 6 5 5 7 6 5 8 7 8 9 11 13 14 16 17 16 17 15 13 15 16 17 14 16 13 12 15 15 13 15 18 16 14 16 19 20 18 18 16 16 17 16 14 11 9 6 5
10 10 9 9 9 9 9 11 12 12 14 9 9 6 3 5 6 4 6 10 13 13 13 13 14 14 15 3 2 1 2 4 3 4 3 3 3 8 6 6 6 5 8 5 3 3 2 8 10 10 13 14 15 15 14 15 13 14 14 15 15 13 16 13 16 13 14 12 12 12 16 16 17 17 20 21 18 17 14 15 16 19 16 10 5 5 3 6
11 9 8 9 9 9 10 10 12 10 15 7 6 4 1 3 3 3 3 7 5 11 14 17 12 11 10 5 1 1 1 8 7 7 4 6 7 7 7 6 7 7 6 6 3 4 7 10 10 14 14 14 15 12 12 13 14 14 12 12 13 12 14 17 16 11 5 4 12 13 17 16 17 20 19 16 13 10 12 13 15 14 10 7 3 4 6 5
9 8 9 9 8 8 10 9 8 9 7 4 2 1 2 2 1 2 3 6 10 11 10 10 8 12 12 8 4 5 10 13 12 8 9 8 7 7 6 6 8 8 7 10 8 8 9 7 14 14 12 12 13 12 10 12 13 11 10 10 12 11 12 11 7 2 4 4 12 14 17 14 17 18 14 5 2 7 8 15 14 10 7 5 6 5 4 6
10 9 9 9 8 8 9 8 9 8 3 3 3 3 3 1 2 2 4 5 7 9 3 2 4 4 4 3 2 5 9 6 8 7 9 8 7 4 8 10 9 8 10 11 13 12 12 11 4 5 8 10 12 11 11 11 11 10 11 11 13 14 12 13 13 14 15 14 12 11 12 11 7 4 5 5 4 7 14 13 3 4 4 3 4 6 8 10
8 7 6 6 6 6 6 7 6 2 3 4 1 3 2 2 2 2 5 6 5 6 3 1 2 2 2 2 2 4 5 2 3 5 2 4 7 4 6 2 6 10 10 11 12 12 14 15 4 4 6 8 8 10 13 11 11 10 12 14 16 16 16 15 15 14 9 9 8 12 11 6 2 2 5 9 11 17 14 10 10 11 11 10 10 11 12 11
1 1 3 4 4 3 3 4 1 1 3 2 3 3 1 0 2 1 3 5 9 2 1 5 3 2 1 3 2 2 1 5 3 2 2 0 6 4 3 5 4 4 3 7 7 6 7 4 3 6 8 7 8 10 13 8 10 9 6 6 7 9 11 12 12 8 7 6 2 7 6 10 4 11 12 10 12 15 11 11 13 12 11 12 13 13 13 13
5 4 4 2 3 3 2 3 2 1 5 2 3 2 0 1 2 1 3 4 8 4 2 3 3 1 2 2 2 2 4 4 2 3 4 2 3 1 5 3 3 3 1 1 2 6 6 6 3 2 5 7 7 9 10 11 9 9 4 4 5 7 8 8 6 6 10 9 12 9 7 10 11 8 9 8 16 13 5 15 14 11 14 13 13 15 15 15
5 5 5 3 1 6 2 2 1 3 2 3 3 2 1 0 1 1 3 6 3 4 2 4 2 1 3 3 2 4 4 1 4 3 2 2 4 4 5 6 4 3 7 4 7 3 3 5 5 5 6 6 9 10 2 6 8 3 2 3 5 4 6 5 6 7 7 10 10 3 8 6 7 6 4 9 11 9 9 13 12 13 13 13 13 13 15 15
7 6 3 2 1 2 2 3 3 3 2 2 2 2 1 2 4 5 4 6 3 2 2 2 2 2 3 2 5 2 2 2 3 3 2 1 3 3 5 7 5 6 5 9 9 2 1 1 5 6 5 8 9 6 1 5 8 2 1 1 2 2 4 7 6 7 8 7 13 6 9 5 10 3 4 1 2 2 11 9 12 13 13 10 11 12 14 13
8 10 9 4 6 3 1 1 3 2 3 3 3 3 3 4 3 4 6 7 4 2 2 3 3 2 4 4 4 6 5 3 1 4 5 2 6 2 1 1 4 4 7 8 12 13 4 2 4 3 9 8 1 5 4 2 2 4 1 6 7 6 7 6 5 5 4 9 11 11 14 8 6 2 3 3 1 5 5 8 10 12 11 11 11 13 12 12
9 11 11 9 2 1 3 2 3 3 4 4 4 5 5 5 5 5 10 2 4 2 2 4 3 3 6 6 5 7 4 4 4 6 4 2 5 6 2 2 2 4 4 6 8 14 9 5 2 5 9 1 1 2 3 2 2 1 3 4 6 8 7 4 3 4 5 9 2 5 8 10 5 2 4 6 5 3 6 5 12 11 11 9 10 11 12 12
8 8 9 5 3 2 3 1 3 4 4 5 4 5 5 8 6 10 5 5 6 3 4 3 2 4 7 2 3 4 5 6 6 7 6 5 5 6 7 6 4 3 6 5 5 4 5 10 11 5 3 9 6 6 3 4 3 3 4 4 5 5 2 6 4 4 6 7 4 2 3 6 13 12 14 7 2 10 8 7 9 12 10 10 11 12 11 10
6 6 4 1 2 2 1 2 3 3 3 3 3 3 6 5 11 7 10 4 2 2 3 3 2 7 3 4 8 5 2 3 8 7 6 3 5 7 8 10 7 6 10 6 11 6 7 5 9 8 0 8 8 8 4 3 8 7 7 5 4 6 6 10 7 7 9 3 4 1 2 9 11 12 15 15 1 11 13 13 13 12 12 11 11 10 10 10
6 5 2 1 2 2 2 1 3 4 3 2 1 2 4 8 10 8 5 10 6 2 1 2 2 2 4 7 3 7 6 8 6 4 6 5 6 8 9 12 10 7 7 9 10 7 12 9 7 9 4 10 12 11 9 8 8 11 8 8 6 6 5 9 6 11 9 9 2 3 4 4 2 5 11 15 14 12 13 13 12 13 13 12 11 10 10 10
5 3 2 2 2 3 4 2 4 5 2 1 2 4 8 13 6 8 8 7 8 3 4 4 4 4 8 7 3 4 4 5 5 5 6 8 9 7 9 10 10 10 4 9 5 5 11 13 3 8 5 9 11 11 3 2 2 4 2 1 4 7 4 11 7 9 10 10 9 4 6 3 5 5 6 12 13 14 13 13 12 12 11 11 10 10 9 8
1 0 1 2 2 3 6 4 4 3 3 5 5 7 16 10 5 7 5 4 8 8 5 3 6 8 10 10 7 9 7 9 3 3 6 9 10 10 6 4 3 10 6 8 5 9 6 8 6 1 4 3 2 4 1 1 5 2 4 5 4 4 2 7 8 9 9 6 14 8 12 13 8 13 19 13 17 13 11 12 11 11 10 10 9 7 7 6
1 1 2 3 4 4 6 7 5 4 5 7 8 13 12 9 14 11 3 4 1 3 5 8 7 10 9 9 8 8 6 5 7 4 7 3 7 12 10 6 4 2 9 4 7 7 9 9 2 6 8 4 2 3 2 1 1 5 3 3 2 2 2 3 9 6 10 13 11 6 13 12 7 8 11 13 14 11 9 10 11 10 9 9 6 5 4 4
1 1 4 4 4 6 7 9 9 6 5 9 14 18 3 10 9 14 4 2 1 5 8 9 7 3 6 7 7 6 6 7 5 8 7 5 5 6 1 3 3 1 2 2 5 2 5 9 7 3 2 3 4 2 5 6 4 6 5 5 3 3 6 7 5 10 12 12 9 10 15 14 13 12 3 10 11 10 9 8 8 8 7 7 7 6 5 5
0 0 4 3 5 7 7 10 8 8 9 12 12 15 11 15 1 3 2 3 2 5 8 10 10 7 9 9 7 4 7 6 5 7 5 6 8 2 3 3 2 3 1 3 3 5 2 8 9 3 2 4 3 4 6 5 5 3 2 5 1 2 6 11 8 4 3 14 10 10 8 10 9 7 4 8 9 9 8 7 7 7 7 6 5 4 3 3
3 2 5 4 4 7 9 11 7 8 10 18 14 13 1 4 11 6 2 5 6 7 8 9 11 11 9 10 8 9 6 9 8 8 9 6 10 3 4 2 2 3 3 1 4 2 6 5 12 4 4 1 5 6 8 10 7 6 6 8 4 3 2 2 2 4 7 11 10 9 10 8 3 5 4 9 9 8 8 8 6 5 5 5 4 3 2 2
3 3 1 3 6 8 11 9 10 15 14 8 9 9 7 5 3 2 1 1 5 3 3 5 7 12 11 10 14 12 9 11 10 11 10 11 10 7 5 3 3 3 2 3 4 3 3 4 11 9 8 9 10 5 4 6 6 4 3 6 8 7 6 8 11 6 4 7 8 10 12 7 3 5 7 6 6 7 7 7 6 6 6 5 4 4 2 2
5 5 2 3 7 13 13 13 10 6 7 14 15 10 8 3 9 8 4 2 5 7 5 6 10 11 11 13 12 9 7 8 9 10 7 10 7 11 3 1 3 2 4 5 7 3 3 4 7 12 12 13 14 15 5 2 5 6 4 5 7 6 5 7 9 6 5 8 7 12 12 8 4 3 7 6 4 6 5 4 4 4 3 4 4 3 2 2
6 3 4 3 7 14 12 11 10 11 13 11 8 10 8 3 5 7 11 10 9 6 7 8 9 10 12 11 10 12 12 9 8 11 11 9 11 4 4 4 2 2 4 6 8 2 5 2 7 11 11 12 16 16 5 3 5 9 9 10 8 13 12 13 9 4 7 7 11 10 12 4 3 4 5 6 7 4 4 3 4 4 2 2 2 1 2 2
4 2 3 2 4 11 12 13 14 15 13 10 10 13 10 11 10 9 9 9 8 7 12 10 10 13 13 11 10 11 10 8 5 12 12 10 8 7 6 5 5 0 3 3 4 3 3 4 6 5 6 7 9 8 5 5 1 4 4 3 4 5 6 4 5 4 6 6 12 13 12 8 3 2 0 5 6 5 4 3 4 3 4 3 2 2 2 3
2 0 1 1 1 8 12 9 9 11 15 15 14 15 14 11 9 14 12 11 10 11 8 9 10 7 9 5 6 6 4 10 7 3 4 5 2 4 5 6 5 0 5 4 5 2 4 3 2 7 9 10 10 8 7 2 2 2 1 9 10 9 9 5 7 4 8 2 4 3 7 4 4 8 8 8 6 6 5 5 4 5 4 4 3 2 1 1
5 4 5 1 3 3 4 5 4 8 12 13 14 15 15 14 10 7 8 12 14 12 12 9 1 1 10 7 7 8 11 9 6 2 2 4 2 2 3 4 6 4 5 6 3 1 1 1 4 8 10 10 10 9 3 4 7 8 7 7 10 10 7 7 8 11 12 9 10 8 11 13 15 16 15 13 7 5 6 6 5 5 5 4 2 2 1 1
3 4 5 6 3 7 6 5 8 9 10 11 10 9 16 16 13 7 9 7 9 12 11 12 10 9 7 11 12 13 14 12 11 11 10 9 4 3 2 2 4 5 1 2 2 2 2 6 8 10 12 14 16 16 16 14 14 15 13 15 15 15 11 10 11 14 7 11 16 8 15 14 14 15 15 14 10 6 4 3 4 3 4 3 3 4 5 5
4 2 2 3 6 7 9 10 10 10 12 11 12 9 12 13 15 12 8 9 4 3 8 6 12 16 15 13 10 7 10 13 7 9 9 1 3 4 3 3 3 3 5 3 4 2 3 9 9 9 9 15 16 19 17 14 13 14 16 16 17 17 14 15 13 15 16 14 16 15 20 19 19 18 16 8 6 2 3 2 1 0 1 4 4 5 7 7
3 4 2 4 3 4 10 2 9 11 14 13 9 13 15 14 13 12 8 5 7 7 11 9 10 12 13 13 8 6 7 6 6 3 3 1 2 1 1 2 3 3 4 3 4 2 2 8 10 9 10 11 15 16 13 14 14 15 16 18 19 19 20 18 17 18 19 19 20 22 24 26 23 23 13 4 3 4 1 2 2 3 2 2 4 5 6 7
4 3 3 2 2 1 2 4 7 10 12 9 9 11 12 13 15 7 2 7 5 6 8 10 3 6 3 2 2 6 3 2 4 1 1 4 3 3 3 5 4 3 2 3 2 4 4 5 6 2 5 9 12 12 12 11 13 14 16 18 20 21 19 16 18 17 19 21 22 23 24 25 12 5 6 3 4 2 2 2 1 2 1 2 3 4 6 6
2 3 3 1 4 4 3 5 7 11 10 10 12 10 11 15 17 14 5 3 6 7 4 7 3 3 3 1 0 2 2 1 2 2 2 2 6 3 1 1 4 2 1 1 2 1 4 6 1 1 8 12 8 4 3 3 6 9 14 19 22 20 17 16 15 13 15 17 20 21 18 15 2 4 5 2 3 2 3 3 4 2 3 4 5 6 7 7
1 2 1 3 3 6 6 4 7 7 11 11 11 12 11 8 1 5 1 3 2 3 2 2 7 3 4 4 7 5 3 3 4 2 2 1 2 2 4 3 2 3 1 3 1 1 3 2 3 5 8 8 6 5 2 4 7 11 16 20 18 18 18 19 19 20 21 18 15 13 10 3 3 2 2 2 3 4 5 5 4 5 4 5 6 8 8 9
Wind_Direction
39 35 31 28 23 18 15 12 8 7 6 5 2 2 360 357 351 350 350 346 343 345 342 339 340 341 340 340 339 338 327 296 275 249 233 254 101 115 94 112 141 147 176 187 163 171 182 194 198 168 206 215 160 236 125 225 241 213 227 242 255 261 267 293 274 298 312 293 300 285 269 279 286 258 166 170 238 240 265 266 272 253 234 245 252 115 129 146
28 24 21 19 16 15 12 5 3 0 360 357 355 352 352 350 347 341 341 343 340 338 339 335 335 338 339 338 334 338 321 279 273 270 255 124 121 129 123 145 141 161 185 195 182 197 203 195 200 185 207 228 127 234 154 189 189 221 253 256 262 271 291 324 290 295 299 294 303 299 297 278 277 294 292 289 279 282 278 266 264 263 252 244 247 209 171 171
22 16 13 8 7 5 3 359 355 355 353 350 348 349 345 342 338 338 337 337 336 337 333 334 335 334 336 335 332 328 324 286 270 275 25 59 127 137 138 144 159 173 190 199 206 221 238 261 190 202 221 260 166 226 190 205 188 231 256 261 262 265 272 274 278 289 288 294 289 296 296 299 289 284 289 262 280 281 268 274 277 272 274 265 236 233 213 195
20 8 1 3 356 355 352 350 352 349 347 346 343 344 339 336 333 336 333 331 330 331 331 327 329 332 327 327 330 316 283 284 285 84 72 94 119 127 146 155 164 184 216 265 236 243 265 288 195 224 244 241 220 223 233 182 220 191 227 246 266 289 302 279 292 286 285 287 291 293 298 290 279 277 262 259 277 261 264 260 263 274 281 287 297 304 250 203
11 1 1 351 355 348 346 348 349 343 344 344 342 336 338 333 331 331 331 326 329 326 328 327 327 327 330 321 319 289 306 289 67 45 96 112 113 134 144 164 170 184 218 208 203 218 224 220 204 228 247 259 242 233 238 230 211 290 244 256 272 279 272 272 279 292 280 311 291 287 286 285 304 273 254 256 257 263 267 286 294 296 293 296 297 297 299 209
1 2 352 347 346 347 343 341 344 343 340 340 337 336 332 331 332 328 328 328 322 325 323 326 325 327 324 324 303 247 293 300 112 99 25 113 132 134 149 160 182 201 207 194 203 193 203 211 218 219 230 242 256 241 256 234 165 254 255 250 252 259 269 287 289 312 185 278 277 281 285 301 282 278 271 265 253 260 264 278 284 284 286 288 290 287 277 240
329 354 345 349 347 341 340 333 339 341 335 333 335 332 330 328 326 327 322 323 318 317 320 318 322 323 324 308 260 268 242 272 243 91 105 129 121 126 131 148 178 204 206 200 205 193 207 224 222 245 255 265 262 264 259 238 194 247 272 277 278 285 271 280 284 286 250 264 266 275 289 279 279 280 283 273 268 265 270 270 272 276 280 284 284 279 266 256
328 330 340 348 341 337 333 333 335 332 333 331 330 329 327 323 323 320 320 313 315 310 313 312 318 321 333 291 242 234 220 250 75 98 90 126 132 125 139 162 180 195 205 213 200 215 212 236 232 252 261 265 291 280 280 259 238 247 259 263 267 267 277 283 280 276 269 256 264 270 271 265 266 275 292 275 274 274 269 266 268 272 276 280 279 276 266 258
190 324 352 345 333 330 329 330 330 331 328 328 326 324 322 319 316 317 311 309 306 305 300 306 304 322 294 282 259 278 254 266 49 97 144 139 143 147 162 163 194 194 210 221 222 242 231 247 253 245 278 281 286 266 259 245 267 254 253 271 287 287 283 279 280 271 259 261 255 256 257 265 270 283 272 271 274 266 261 264 268 273 276 276 279 276 267 261
318 344 339 321 322 326 328 328 329 325 326 326 324 321 318 317 314 311 309 304 300 299 294 290 300 297 295 218 243 259 274 42 95 102 124 134 137 155 194 207 182 203 214 217 226 231 220 269 296 5 301 282 268 260 279 246 262 349 305 306 297 288 289 281 273 271 264 261 254 244 260 270 280 274 276 269 282 324 282 272 277 286 286 285 284 281 271 262
309 325 323 314 321 326 324 325 323 321 322 322 320 317 315 312 310 307 305 301 297 291 289 280 254 236 237 216 250 260 81 251 60 103 130 146 149 173 189 194 196 211 221 215 228 227 250 266 6 253 255 259 338 270 237 245 342 300 307 306 285 280 274 273 269 265 259 260 257 244 254 270 273 256 256 277 271 268 273 279 283 287 289 291 288 282 274 259
308 307 314 315 322 319 321 319 318 321 321 320 318 316 313 310 308 306 302 301 294 286 273 260 176 238 259 248 243 259 22 50 118 113 124 165 141 54 34 348 217 226 230 231 224 235 294 304 251 230 256 56 261 303 258 337 300 303 306 293 286 284 280 271 264 263 250 244 120 219 254 258 252 229 247 250 261 267 270 277 280 278 281 286 287 284 276 264
288 296 300 311 312 315 317 318 321 322 322 322 320 317 314 312 309 305 304 300 291 279 271 200 160 242 256 258 251 55 317 89 100 116 113 97 102 77 47 2 255 284 312 285 311 25 3 264 249 249 256 269 280 284 54 279 283 286 269 268 285 281 275 275 272 255 234 218 130 159 280 269 275 256 253 266 271 272 262 271 288 291 289 287 286 282 277 271
289 302 298 308 310 315 318 321 323 323 326 326 324 319 316 314 309 305 302 296 309 271 160 145 235 219 237 263 75 344 61 112 123 149 128 143 161 104 137 94 131 283 7 287 59 351 224 242 257 251 338 257 261 28 292 261 223 274 288 276 267 286 276 280 223 137 234 127 173 198 268 283 276 277 285 306 8 301 273 287 291 288 287 286 282 278 273 268
290 269 301 311 315 314 307 323 318 320 326 327 324 320 317 315 315 311 315 287 117 74 135 166 231 213 221 253 92 109 284 334 190 126 125 181 181 146 178 148 114 144 85 76 82 122 201 194 215 242 248 237 283 285 272 268 265 266 289 255 243 244 265 278 182 178 256 150 205 188 263 270 281 293 303 303 297 277 276 285 286 284 282 281 278 274 271 269
287 316 320 311 313 316 319 311 310 319 323 326 325 318 315 309 315 352 20 14 95 132 165 210 188 266 307 272 123 120 210 220 159 70 159 297 216 270 118 130 118 126 183 101 112 160 199 179 220 280 261 178 245 253 270 278 257 247 243 266 268 271 283 293 268 258 278 105 189 206 274 292 281 285 296 302 298 294 289 287 284 282 281 278 273 271 270 273
270 315 299 302 297 311 300 300 305 315 315 319 319 310 308 279 142 334 25 121 148 201 231 321 152 193 270 72 117 226 158 106 65 147 133 222 269 152 138 148 158 135 132 130 170 174 163 214 126 258 236 261 256 261 278 259 268 257 246 261 260 272 292 278 304 291 47 187 267 219 246 260 277 285 287 286 284 285 284 281 276 277 281 280 278 274 274 275
299 282 274 269 278 284 289 302 310 315 314 320 312 308 276 180 182 224 194 202 189 219 239 262 267 290 236 146 262 313 71 111 151 97 90 85 265 171 171 172 142 156 153 141 159 209 165 218 182 252 211 221 236 237 239 259 273 293 301 295 293 295 297 298 297 306 295 280 283 285 273 276 284 290 286 286 284 278 274 273 273 280 284 286 279 274 275 282
282 273 266 271 280 285 297 308 309 316 320 319 293 293 182 231 250 258 263 194 226 197 198 158 206 211 333 25 83 110 71 86 108 208 137 147 164 166 163 132 176 161 181 218 161 196 164 231 187 238 238 226 226 226 237 257 272 281 289 298 293 289 283 286 292 291 291 288 288 289 285 292 293 293 288 281 272 266 269 272 285 287 280 272 274 281 284 291
260 267 271 274 275 282 296 302 306 315 323 324 309 241 223 232 212 182 203 219 245 275 298 296 265 281 291 288 305 46 116 213 195 85 109 128 152 169 172 178 148 238 215 232 144 206 162 219 210 212 231 242 250 248 253 264 275 284 287 278 276 276 277 278 274 282 286 291 280 284 291 294 295 291 288 280 273 270 268 277 277 271 268 271 279 294 331 348
267 270 278 278 280 284 290 297 305 316 314 301 292 278 331 4 319 318 349 286 270 269 269 265 257 268 271 5 150 213 322 192 239 141 137 166 224 178 170 179 175 210 215 221 171 100 212 235 236 235 239 248 258 269 276 282 281 280 278 278 275 270 279 277 284 293 290 284 289 287 287 291 300 296 281 275 281 283 279 266 262 263 267 285 342 38 10 329
254 269 277 279 278 283 291 299 310 315 300 275 298 356 89 28 357 350 296 290 281 259 248 252 265 264 260 259 92 256 355 284 236 133 160 206 167 227 154 209 192 252 136 150 147 189 212 228 234 234 239 249 262 268 272 274 276 272 270 276 280 278 280 283 279 283 309 339 287 301 300 296 288 279 277 285 288 280 264 253 257 268 291 308 329 315 329 342
256 263 272 277 283 289 300 304 309 315 303 287 324 304 51 54 341 344 283 273 264 258 239 246 247 253 262 256 248 125 244 243 259 177 168 206 162 236 180 199 221 238 187 197 227 241 252 239 237 238 246 254 260 257 265 267 260 259 261 262 267 283 290 297 297 252 235 260 299 305 299 290 270 263 267 262 90 256 253 254 262 277 294 323 324 355 10 38
255 260 265 271 281 291 302 313 301 285 262 331 316 39 51 22 257 227 243 275 308 282 189 190 277 294 295 293 82 231 224 255 224 233 149 189 206 184 212 221 240 232 228 223 233 246 256 280 31 239 242 250 261 266 262 260 264 255 252 260 271 274 279 291 306 314 310 297 282 306 285 290 292 216 205 199 220 261 270 263 231 72 85 82 80 55 42 52
251 253 257 265 275 286 296 309 280 339 14 263 127 73 56 352 302 270 282 268 213 240 73 171 202 240 118 98 173 218 220 256 244 55 170 249 198 134 235 241 234 241 238 240 250 252 260 265 127 213 217 250 258 260 251 255 272 275 262 257 265 280 294 303 311 320 311 301 78 348 328 317 97 11 308 309 320 287 279 300 37 45 46 44 47 52 57 56
102 209 231 233 241 259 311 281 59 111 282 311 67 96 48 337 313 311 288 275 280 139 198 162 201 131 5 162 125 290 342 208 58 48 341 287 336 283 83 219 203 266 289 230 251 268 283 42 134 232 245 245 248 256 262 263 265 271 300 358 313 311 308 305 310 323 301 305 360 37 306 291 264 281 276 281 276 266 273 66 65 56 52 56 50 45 48 48
48 34 19 319 223 153 240 275 42 262 279 115 92 108 102 193 324 226 270 226 266 126 182 37 233 118 222 85 219 141 223 115 129 126 200 30 241 97 269 169 138 216 304 31 296 237 201 223 132 195 229 232 243 249 246 231 250 263 41 331 340 307 304 317 316 288 274 286 279 255 217 277 296 283 268 221 250 262 77 78 68 56 58 52 59 58 47 48
48 40 17 5 256 198 308 344 223 262 5 78 101 86 99 38 83 200 246 305 276 126 131 157 41 98 274 112 228 261 17 131 187 132 4 57 281 159 237 254 252 240 169 196 242 64 202 174 198 191 198 219 229 236 56 198 226 286 90 14 305 307 295 290 283 284 286 300 293 201 202 259 265 295 149 245 245 276 104 89 81 68 52 46 56 63 65 56
25 20 27 99 111 215 342 326 312 307 72 97 122 128 118 179 242 281 299 271 71 111 343 100 312 204 133 160 204 232 215 170 317 90 135 174 265 316 213 253 282 280 195 215 258 256 142 25 202 207 201 234 240 242 202 184 245 91 110 92 188 237 235 257 268 277 283 279 273 237 192 256 289 316 177 189 344 297 106 91 80 77 71 58 49 51 57 58
9 14 3 16 117 106 177 87 250 64 118 128 164 161 156 210 237 236 228 240 40 207 126 81 193 143 153 192 203 185 219 151 73 119 181 215 155 230 287 56 292 253 242 238 249 255 266 139 23 250 222 245 335 66 14 352 348 98 279 293 276 240 245 232 239 266 276 255 265 249 197 228 291 345 295 138 20 48 43 92 93 77 75 62 49 54 51 46
7 5 2 336 162 89 140 220 135 138 149 171 171 198 231 231 253 267 242 294 346 219 73 174 168 140 178 209 223 164 245 190 162 178 158 187 174 215 234 212 210 254 258 251 246 250 223 159 163 228 242 259 201 124 88 67 54 294 273 285 308 277 219 235 232 218 254 275 19 69 192 215 251 185 109 91 132 93 66 76 98 92 79 69 58 45 44 51
12 2 354 2 357 311 229 36 138 158 173 175 192 242 240 269 220 223 224 108 257 140 190 156 142 202 222 209 294 181 199 188 183 197 212 177 193 188 195 254 159 265 246 211 247 141 225 223 216 199 173 218 196 243 162 130 136 204 232 250 262 284 307 270 208 226 234 272 116 91 66 267 237 243 268 317 237 85 74 98 105 100 93 77 68 60 52 42
1 353 335 10 309 225 342 56 121 158 172 199 246 245 248 248 253 221 238 213 275 88 152 356 176 189 200 206 230 183 27 236 162 208 233 194 261 234 226 227 246 251 279 294 306 291 258 148 197 188 278 209 196 199 190 216 189 198 209 211 231 262 251 267 274 273 270 250 146 194 104 259 273 274 251 245 295 85 94 91 97 95 87 76 63 58 57 52
355 343 330 40 304 307 39 113 139 163 204 224 240 205 273 250 244 37 270 205 217 80 78 137 107 180 198 222 186 179 215 213 200 225 186 237 211 256 242 227 229 242 242 273 268 282 287 268 191 168 218 155 193 215 231 297 162 203 206 194 222 237 264 281 279 276 274 287 314 177 292 227 297 347 72 76 87 90 85 88 84 85 85 77 67 58 51 50
340 347 333 281 251 231 167 173 156 172 251 219 107 201 235 243 253 243 224 240 250 269 252 107 224 202 231 239 251 237 254 287 195 233 203 230 239 235 248 259 207 220 215 270 223 246 246 254 281 153 13 158 182 217 286 66 281 173 205 285 266 242 247 257 277 282 292 297 278 191 208 293 265 108 116 102 104 88 90 82 80 79 76 75 68 56 49 42
310 149 59 247 212 205 153 161 160 190 204 192 183 221 232 223 241 194 251 258 251 246 238 183 215 243 247 254 208 236 158 227 159 205 242 235 252 260 257 259 240 184 209 223 269 283 255 255 87 110 111 256 107 9 180 360 246 125 128 211 231 28 273 275 262 254 267 265 255 261 263 258 257 256 250 190 91 94 87 85 82 78 78 78 77 71 63 56
49 202 220 200 221 170 160 147 154 169 200 208 206 237 237 244 234 254 242 230 266 252 231 252 229 225 243 247 250 174 195 202 235 219 248 181 252 224 234 239 70 248 239 289 281 250 279 279 146 176 231 112 33 360 318 317 298 114 209 217 73 225 352 249 269 267 255 256 262 242 264 273 271 286 72 93 102 102 91 86 90 90 90 89 93 92 91 77
5 275 277 253 206 157 157 151 153 171 200 204 218 235 226 250 228 236 96 148 152 207 240 233 252 310 264 264 262 162 175 199 181 190 248 182 277 95 158 197 60 296 298 20 257 13 0 286 267 52 35 109 122 244 254 196 240 256 280 38 278 247 249 213 236 245 246 248 262 236 256 260 265 266 230 143 120 118 105 97 94 89 86 85 77 71 65 64
138 277 271 178 126 159 156 150 168 167 195 210 222 246 236 240 31 213 168 217 208 228 230 234 254 232 249 254 260 137 181 207 204 225 243 209 235 109 84 34 156 131 17 195 234 283 213 271 273 128 80 115 164 186 252 186 178 252 2 273 161 294 248 262 254 282 266 267 263 255 235 256 244 306 350 81 101 109 102 89 77 76 71 72 85 78 72 60
207 172 232 110 167 156 156 161 173 198 205 215 216 224 166 277 232 222 167 195 195 203 232 249 230 252 246 255 258 259 224 234 249 255 235 260 270 187 103 23 344 105 30 93 284 352 279 249 271 252 93 258 244 187 239 257 241 198 213 237 210 218 32 328 325 236 248 264 262 283 262 255 285 24 78 95 89 89 102 106 106 103 108 105 94 95 94 111
233 261 146 93 151 158 149 165 190 206 215 237 250 245 221 224 141 116 226 283 273 268 293 247 242 241 248 258 251 246 254 247 250 251 253 262 245 255 85 87 11 62 338 264 246 234 263 229 260 280 263 250 264 274 360 318 326 325 261 245 254 263 252 250 258 217 226 232 248 245 254 262 47 13 84 90 88 83 71 82 95 101 96 101 101 94 98 81
195 211 171 87 158 165 159 171 211 205 225 222 224 214 240 260 250 220 145 122 238 246 221 262 254 262 259 255 258 269 267 259 252 253 239 242 243 259 98 169 33 20 335 302 307 40 311 297 276 268 257 262 275 281 291 170 268 274 290 276 280 288 275 268 276 250 258 238 249 250 273 249 83 110 96 100 90 93 85 88 104 93 83 66 58 45 26 30
210 236 48 287 181 177 176 202 205 210 218 232 244 252 242 273 240 248 255 232 239 224 239 231 229 240 239 249 255 256 251 251 235 249 250 239 252 319 49 353 67 284 335 286 280 234 94 263 264 256 265 270 276 276 255 223 252 266 253 246 243 249 258 265 268 313 278 273 263 260 255 256 92 90 100 106 110 110 110 136 134 125 114 98 76 343 344 332
213 201 162 90 240 204 194 200 206 214 223 230 227 243 229 238 238 228 227 231 232 229 238 241 249 239 261 250 251 253 246 262 233 246 252 251 257 73 18 15 360 41 280 315 283 6 294 254 263 285 280 278 266 251 216 57 202 258 286 303 315 308 310 305 297 268 265 228 248 268 265 279 86 107 161 131 146 149 149 118 136 143 155 162 176 218 266 287
166 350 178 167 186 228 217 216 226 216 220 224 225 233 235 233 232 243 241 234 228 243 245 244 249 254 235 245 276 262 269 254 269 281 287 278 263 81 37 15 346 165 44 50 63 12 262 277 318 273 272 272 270 258 269 274 40 348 253 268 271 281 281 303 273 277 274 11 324 285 289 270 185 194 208 189 175 166 167 166 165 163 166 161 169 191 213 251
199 194 176 169 224 274 282 292 303 244 225 221 229 235 237 241 227 189 209 246 245 239 238 253 219 241 247 236 226 231 243 234 225 255 224 229 154 57 56 41 41 79 60 59 27 325 264 251 243 254 260 262 267 289 345 306 286 280 287 286 277 274 284 273 274 270 265 278 273 265 261 278 275 276 273 273 165 182 175 177 179 169 173 173 185 226 231 277
305 231 167 188 175 253 240 234 233 236 228 220 231 225 234 234 240 227 183 234 221 236 241 239 241 239 232 236 247 254 252 252 235 243 246 257 258 103 67 94 80 68 115 51 123 96 228 264 249 249 250 259 266 270 276 282 278 277 279 278 280 275 269 265 255 259 288 294 272 251 267 270 276 281 288 293 291 166 170 166 170 178 179 193 199 220 230 247
206 233 174 172 216 200 208 225 219 225 236 235 238 233 239 236 228 230 197 216 251 228 225 232 236 241 246 243 242 250 245 250 248 244 249 240 238 186 182 174 163 133 147 153 180 212 272 272 269 271 261 261 263 269 275 276 275 276 270 274 277 275 267 258 257 267 267 254 267 278 281 283 283 285 287 303 106 140 122 142 162 220 196 206 220 232 239 242
283 330 294 325 194 240 218 40 192 207 228 230 243 240 242 237 237 232 240 215 208 221 224 236 233 232 236 241 241 246 233 244 239 234 235 62 83 97 235 186 183 177 181 162 186 194 264 257 262 254 261 263 267 270 273 276 277 271 268 268 268 267 266 268 274 270 265 268 269 273 275 275 278 278 287 95 84 111 95 128 195 209 220 217 243 254 255 257
208 234 192 116 292 351 35 160 201 202 221 211 227 233 239 238 239 216 83 224 225 229 222 246 255 67 68 54 236 226 239 41 40 42 18 102 295 219 246 266 270 128 182 203 209 245 235 271 97 27 269 259 261 263 268 271 274 273 274 272 267 265 270 278 276 272 275 268 265 267 268 271 276 81 101 88 108 90 105 275 326 306 268 279 296 306 302 289
310 19 335 307 211 201 115 185 189 204 217 216 226 231 239 237 244 243 231 23 237 233 203 228 126 92 36 136 166 244 266 152 213 226 272 245 252 346 5 275 97 174 149 124 219 258 255 259 344 284 279 272 261 263 299 318 303 286 280 267 260 262 268 259 259 257 256 261 266 271 267 267 89 86 87 112 69 37 345 333 313 337 341 333 318 310 308 305
137 269 262 287 266 181 170 191 205 194 223 220 221 222 231 225 197 109 200 178 72 333 309 130 185 192 243 152 220 243 142 134 162 149 141 269 324 277 276 291 293 262 217 156 298 188 239 247 255 260 254 252 259 72 9 335 305 281 247 248 259 260 254 258 255 255 254 262 266 258 274 45 85 90 72 58 59 338 320 323 329 319 331 325 320 316 313 313